Deming, NM

10:17 AM MDT on September 28, 2016 (GMT -0600)
Deming Municipal

Weather History for KDMN - April, 2013

Change the Weather History Date:

Wednesday, April 3, 2013

  Actual Average Record
Temperature  
Mean Temperature 58 °F 56 °F  
Max Temperature 76 °F 73 °F 87 °F (1959)
Min Temperature 39 °F 38 °F 26 °F (1988)
Degree Days  
Heating Degree Days 8    
Growing Degree Days 7 (Base 50)    
Moisture  
Dew Point 21 °F    
Average Humidity 31    
Maximum Humidity 49    
Minimum Humidity 12    
Precipitation  
Precipitation 0.00 in 0.01 in 0.07 in (2004)
Month to date precipitation 0.00 0.03  
Year to date precipitation 0.48 1.65  
Sea Level Pressure  
Sea Level Pressure 29.91 in    
Wind  
Wind Speed 6 mph (West)    
Max Wind Speed 20 mph    
Max Gust Speed 32 mph    
Visibility 10 miles    
Events      
T = Trace of Precipitation, MM = Missing Value Source: NWS Daily Summary

Daily Weather History Graph

Daily Weather History Graph

Search for Another Location

Airport or City:

Trip Planner

Search our weather history database for the weather conditions in past years. The results will help you decide how hot, cold, wet, or windy it might be!

Date:

Astronomy

Apr. 03, 2013 Rise Set
Actual Time 6:56 AM MDT 7:32 PM MDT
Civil Twilight 6:31 AM MDT 7:57 PM MDT
Nautical Twilight 6:02 AM MDT 8:26 PM MDT
Astronomical Twilight 5:32 AM MDT 8:55 PM MDT
Moon 2:17 AM MDT (4/3) 1:08 PM MDT (4/3)
Length of Visible Light 13h 25m
Length of Day
12h 36m
Last Quarter, 44% of the Moon is Illuminated
Apr 3
Last Quarter
Apr 10
New
Apr 18
First Quarter
Apr 25
Full
May 2
Last Quarter

Hourly Weather History & Observations

Time (MDT) Temp. Windchill Dew Point Humidity Pressure Visibility Wind Dir Wind Speed Gust Speed Precip Events Conditions
12:53 AM 53.1 °F - 14.0 °F 21% 29.82 in 10.0 mi NW 9.2 mph - N/A   Clear
1:53 AM 50.0 °F - 14.0 °F 24% 29.83 in 10.0 mi NW 8.1 mph - N/A   Clear
2:53 AM 48.9 °F - 14.0 °F 25% 29.85 in 10.0 mi West 8.1 mph - N/A   Clear
3:53 AM 44.1 °F 42.5 °F 15.1 °F 31% 29.88 in 10.0 mi SSE 3.5 mph - N/A   Clear
4:53 AM 48.9 °F - 26.1 °F 41% 29.88 in 10.0 mi NE 8.1 mph - N/A   Clear
5:53 AM 45.0 °F - 27.0 °F 49% 29.90 in 10.0 mi Calm Calm - N/A   Clear
6:53 AM 39.0 °F 36.8 °F 19.9 °F 46% 29.94 in 10.0 mi North 3.5 mph - N/A   Clear
7:53 AM 45.0 °F - 18.0 °F 34% 29.96 in 10.0 mi Calm Calm - N/A   Clear
8:53 AM 53.1 °F - 23.0 °F 31% 29.97 in 10.0 mi Calm Calm - N/A   Clear
9:53 AM 57.9 °F - 27.0 °F 31% 29.98 in 10.0 mi SSE 4.6 mph - N/A   Clear
10:53 AM 60.1 °F - 26.1 °F 27% 29.98 in 10.0 mi Variable 3.5 mph - N/A   Clear
11:53 AM 64.0 °F - 26.1 °F 24% 29.96 in 10.0 mi East 8.1 mph - N/A   Clear
12:53 PM 66.0 °F - 25.0 °F 21% 29.93 in 10.0 mi Variable 4.6 mph - N/A   Clear
1:53 PM 70.0 °F - 21.9 °F 16% 29.91 in 10.0 mi Variable 6.9 mph 19.6 mph N/A   Clear
2:53 PM 71.1 °F - 21.9 °F 16% 29.88 in 10.0 mi SW 11.5 mph - N/A   Clear
3:53 PM 73.0 °F - 21.9 °F 15% 29.86 in 10.0 mi SSW 9.2 mph - N/A   Clear
4:53 PM 75.0 °F - 19.0 °F 12% 29.83 in 10.0 mi WNW 12.7 mph 19.6 mph N/A   Clear
5:08 PM 73.4 °F - 21.2 °F 14% 29.98 in 10.0 mi West 15.0 mph 28.8 mph N/A   Clear
5:53 PM 73.0 °F - 18.0 °F 12% 29.84 in 10.0 mi WSW 15.0 mph - N/A   Clear
6:53 PM 72.0 °F - 17.1 °F 12% 29.87 in 10.0 mi WSW 12.7 mph - N/A   Scattered Clouds
7:53 PM 69.1 °F - 19.0 °F 15% 29.88 in 10.0 mi West 9.2 mph - N/A   Scattered Clouds
8:53 PM 64.0 °F - 19.9 °F 18% 29.91 in 10.0 mi West 6.9 mph - N/A   Clear
9:53 PM 60.1 °F - 19.0 °F 20% 29.94 in 10.0 mi Calm Calm - N/A   Partly Cloudy
10:53 PM 59.0 °F - 21.0 °F 23% 29.95 in 10.0 mi WNW 6.9 mph - N/A   Clear
11:53 PM 57.0 °F - 21.9 °F 26% 29.94 in 10.0 mi NW 8.1 mph - N/A   Clear